User: anonymous   Login
Location: Nied?wied?
(53.3665°N, 14.8184°E)
Time: 05:47:34
(UTC+00:00)
Language:

Cosmos 2360 Rocket - Orbit

View from above orbital plane
View from above orbital plane
View from above satellite
View from above satellite

Ground track
Ground track

The orbit data is extracted from the following two-line orbital elements,

1 25407U 98045B   21127.91117528 -.00000008  00000-0  20118-4 0  9996
2 25407  71.0108 295.7006 0008504 213.2328 146.8262 14.15840037177001
Epoch (UTC): 07 May 2021 21:52:05
Eccentricity: 0.0008504
inclination: 71.0108°
perigee height: 833 km
apogee height: 845 km
right ascension of ascending node: 295.7006°
argument of perigee: 213.2328°
revolutions per day: 14.15840037
mean anomaly at epoch: 146.8262°
orbit number at epoch: 17700

The dashed part of the orbit path shows where the satellite is in the earth's shadow,  

DLR